[[{"header":{"parameterUnit":"m.s-1","parameterCategory":1,"la1":30.2991,"la2":30.254,"lo1":-89.0895,"lo2":-89.0444,"dy":0.0017,"dx":0.0017,"nx":28,"ny":28,"refTime":"2025-05-25T09:00:00:Z","depth":0,"parameterNumber":2,"parameterNumberName":"U-component_of_WINDS"},"data":[0,0,0,0,0,0,0,0,0,0,0,0,0,0,0,0,0,0,0,0,0,0,0,0,0,0,0,0,0,0,0,0,0,0,0,0,0,0,0,0,0,0,0,0,0,0,0,0,0,0,0,0,0,0,0,0,0,0,1.1619,1.162,0,1.1734,1.1735,1.1736,1.1728,1.1726,1.1724,1.1723,1.1841,1.1846,1.1851,0,0,0,0,0,0,0,0,0,0,0,0,0,1.1394,1.1398,1.1619,1.1621,1.1622,1.1733,1.1735,1.1736,1.1728,1.1726,1.1724,1.1722,1.184,1.1845,1.1851,0,0,0,0,0,0,0,0,0,0,0,0,0,1.1498,1.14,1.1619,1.1631,1.1633,1.1733,1.1735,1.1737,1.1728,1.1726,1.1723,1.1721,1.1838,1.1845,1.1852,1.1947,0,0,1.1874,1.1877,0,0,0,0,0,0,0,0,1.1493,1.1507,1.1628,1.163,1.1633,1.1714,1.1699,1.1808,1.1729,1.1692,1.1723,1.172,1.1801,1.1811,1.1838,1.1953,1.1958,1.1874,1.1879,1.1882,1.1884,0,0,0,0,0,0,0,1.1485,1.1502,1.1664,1.163,1.1633,1.1631,1.1643,1.172,1.176,1.1695,1.1695,1.1709,1.1802,1.1831,1.1841,1.196,1.1874,1.188,1.1885,1.1888,1.2157,1.216,0,0,0,0,0,0,1.1475,1.1496,1.1661,1.1668,1.1555,1.1637,1.1651,1.169,1.1759,1.1767,1.1711,1.1708,1.182,1.1833,1.1845,1.196,1.1882,1.1888,1.1892,1.2154,1.2158,1.2161,0,0,0,0,0,0,1.147,1.149,1.1656,1.1582,1.1603,1.1644,1.1689,1.1694,1.1723,1.177,1.1778,1.1733,1.1819,1.1835,1.1921,1.1964,1.1892,1.1898,1.2151,1.2155,1.2159,1.2191,0,0,0,0,0,0,1.1464,1.1488,1.1525,1.1583,1.1607,1.1731,1.1691,1.1698,1.1735,1.1733,1.1793,1.1801,1.1818,1.1911,1.1929,1.1973,1.1904,1.2147,1.2153,1.2158,1.2187,1.2196,1.2204,0,0,0,0,0,1.1456,1.153,1.1527,1.1547,1.1653,1.1733,1.1747,1.1764,1.1739,1.1776,1.1806,1.1799,1.1957,1.192,1.194,1.1986,1.2144,1.2151,1.2157,1.2183,1.2194,1.2204,0,0,0,0,0,0,1.1477,1.1538,1.1535,1.163,1.1676,1.1731,1.1779,1.1777,1.1832,1.1827,1.1847,1.1861,1.1947,1.1976,1.1933,1.2082,1.2047,1.2058,1.206,1.2071,1.208,1.2071,1.191,0,0,0,0,0,1.1492,1.1552,1.1602,1.1681,1.1704,1.1737,1.1773,1.1782,1.1831,1.1851,1.1888,1.1936,1.1996,1.2035,1.2094,1.2191,1.2203,1.2233,1.2242,1.2249,1.2258,1.231,1.2323,1.2182,1.2182,1.2182,0,0,1.1525,1.1566,1.1602,1.1686,1.1723,1.1784,1.1754,1.182,1.1865,1.1861,1.1945,1.1973,1.2028,1.212,1.2163,1.2147,1.2299,1.2257,1.2262,1.2267,1.2318,1.2331,1.2343,1.2186,1.2185,1.2185,0,0,1.1616,1.1653,1.1722,1.176,1.1816,1.1837,1.1854,1.191,1.1928,1.2012,1.201,1.2064,1.2168,1.2207,1.224,1.2345,1.234,1.2363,1.2409,1.246,1.2471,1.2481,1.2517,1.253,1.2372,1.2372,1.2372,0,1.165,1.1741,1.1758,1.1824,1.1861,1.1859,1.1929,1.1965,1.2038,1.2063,1.2044,1.2173,1.221,1.231,1.2336,1.2363,1.2383,1.2356,1.2468,1.2478,1.2488,1.2522,1.2536,1.2374,1.2374,1.2374,1.2374,0,1.1779,1.1843,1.1892,1.1961,1.2003,1.2071,1.2098,1.2139,1.2145,1.2168,1.2253,1.2297,1.2364,1.2389,1.2396,1.249,1.2478,1.2464,1.2429,1.2503,1.2536,1.255,1.2378,1.2377,1.2376,1.2376,0,0,1.1886,1.1963,1.1981,1.2011,1.2073,1.2122,1.219,1.2254,1.2288,1.2338,1.2395,1.2482,1.2469,1.2507,1.2518,1.2563,1.2641,1.2543,1.2544,1.2558,1.2746,1.2756,1.2771,1.2639,1.2641,1.2643,1.2741,0,1.1982,1.2101,1.2118,1.2223,1.2281,1.228,1.2339,1.2383,1.2407,1.246,1.2486,1.2547,1.2525,1.2548,1.2592,1.2622,1.2679,1.2616,1.2691,1.2694,1.2676,1.2789,1.2799,1.2889,1.2754,1.2757,1.2758,0,1.211,1.2162,1.2272,1.2325,1.235,1.2402,1.2462,1.2513,1.2563,1.2577,1.2619,1.2624,1.2694,1.2657,1.2753,1.2709,1.2742,1.2761,1.2765,1.2772,1.273,1.2797,1.2919,1.2932,1.2779,1.2777,1.2776,0,1.2174,1.2273,1.2351,1.2378,1.2441,1.2478,1.2506,1.2554,1.2591,1.2643,1.2667,1.2728,1.2761,1.2807,1.2829,1.28,1.2923,1.2888,1.2936,1.2936,1.2961,1.2959,1.3088,1.2984,1.2984,1.2984,1.2983,0,1.2279,1.2346,1.2381,1.2429,1.2504,1.2523,1.2597,1.2625,1.2667,1.272,1.2724,1.2774,1.28,1.2854,1.2871,1.2947,1.2963,1.2976,1.2979,1.2975,1.2973,1.2995,1.2989,1.2987,1.2986,1.2986,1.2985,0,1.2364,1.239,1.2475,1.2528,1.2543,1.2596,1.2641,1.2688,1.2711,1.2778,1.2795,1.2832,1.2896,1.2922,1.3,1.3012,1.3099,1.3099,1.3082,1.3083,1.3128,1.3123,1.3276,1.3296,1.3179,1.318,1.3181,0,1.2428,1.248,1.2538,1.2573,1.2602,1.266,1.2698,1.2719,1.2758,1.2818,1.2857,1.292,1.2972,1.3074,1.3107,1.3167,1.3167,1.3217,1.3177,1.317,1.3167,1.3163,1.3167,1.3224,1.3225,1.3226,1.3227,0,1.2539,1.2549,1.2603,1.2661,1.2706,1.2753,1.2799,1.2828,1.2856,1.29,1.2964,1.3004,1.3083,1.3146,1.3208,1.3237,1.3237,1.3239,1.3253,1.3248,1.3236,1.3242,1.3101,1.3235,1.3234,1.3234,1.3233,1.3233,1.2615,1.266,1.2707,1.2767,1.2804,1.2846,1.2892,1.2921,1.2975,1.304,1.305,1.3118,1.3167,1.3249,1.3281,1.3335,1.3322,1.3343,1.3348,1.3352,1.3355,1.3228,1.3346,1.3346,1.3346,1.3346,1.3346,0,1.2725,1.2755,1.281,1.2873,1.292,1.2915,1.2965,1.3005,1.3065,1.311,1.316,1.3234,1.3294,1.3333,1.3394,1.343,1.3431,1.3445,1.3442,1.3448,1.3363,1.3344,1.3443,1.3443,1.3443,1.3443,1.3443,1.3443,1.2787,1.2863,1.2879,1.2972,1.3002,1.3069,1.3098,1.3137,1.3173,1.3255,1.3305,1.3329,1.3371,1.3435,1.349,1.35,1.3522,1.3537,1.3545,1.3465,1.3455,1.3445,1.3427,1.3541,1.3542,1.3626,1.3627,1.3627]},{"header":{"parameterUnit":"m.s-1","parameterCategory":1,"la1":30.2991,"la2":30.254,"lo1":-89.0895,"lo2":-89.0444,"dy":0.0017,"dx":0.0017,"nx":28,"ny":28,"refTime":"2025-05-25T09:00:00:Z","depth":0,"parameterNumber":3,"parameterNumberName":"V-component_of_WINDS"},"data":[0,0,0,0,0,0,0,0,0,0,0,0,0,0,0,0,0,0,0,0,0,0,0,0,0,0,0,0,0,0,0,0,0,0,0,0,0,0,0,0,0,0,0,0,0,0,0,0,0,0,0,0,0,0,0,0,0,0,2.3166,2.3167,0,2.323,2.3231,2.3231,2.3155,2.3152,2.3149,2.3147,2.321,2.3214,2.3218,0,0,0,0,0,0,0,0,0,0,0,0,0,2.2975,2.2978,2.3166,2.3167,2.3168,2.323,2.3231,2.3232,2.3155,2.3152,2.3149,2.3145,2.3209,2.3214,2.3219,0,0,0,0,0,0,0,0,0,0,0,0,0,2.305,2.298,2.3166,2.3137,2.3135,2.323,2.3231,2.3232,2.3156,2.3152,2.3148,2.3144,2.3207,2.3213,2.322,2.3345,0,0,2.3239,2.3242,0,0,0,0,0,0,0,0,2.3046,2.3057,2.3141,2.3139,2.3137,2.318,2.3186,2.327,2.3157,2.3148,2.3147,2.3142,2.3203,2.321,2.3231,2.3348,2.335,2.324,2.3244,2.3247,2.3248,0,0,0,0,0,0,0,2.3041,2.3054,2.3191,2.3142,2.314,2.312,2.3126,2.3202,2.3199,2.3149,2.3143,2.3152,2.3202,2.3225,2.3232,2.3351,2.324,2.3245,2.3249,2.3252,2.3571,2.3575,0,0,0,0,0,0,2.3039,2.305,2.3189,2.3193,2.308,2.3127,2.3134,2.3171,2.3198,2.3198,2.3156,2.3148,2.3216,2.3225,2.3234,2.3381,2.3247,2.3253,2.3256,2.3566,2.3572,2.3577,0,0,0,0,0,0,2.3035,2.3052,2.3187,2.312,2.3136,2.3135,2.3177,2.3174,2.3197,2.3203,2.3202,2.318,2.3213,2.3225,2.3317,2.3382,2.3256,2.3261,2.3561,2.3568,2.3574,2.3676,0,0,0,0,0,0,2.303,2.3051,2.31,2.3122,2.314,2.327,2.3181,2.3179,2.3209,2.32,2.3226,2.3226,2.3211,2.3308,2.3324,2.3388,2.3267,2.3555,2.3564,2.3572,2.3667,2.3686,2.3701,0,0,0,0,0,2.3024,2.3126,2.3103,2.312,2.32,2.3274,2.3284,2.3265,2.3215,2.3263,2.3266,2.3225,2.3372,2.3318,2.3335,2.3403,2.3551,2.3562,2.3572,2.3659,2.3682,2.3701,0,0,0,0,0,0,2.3111,2.3128,2.3103,2.3216,2.3244,2.3261,2.3321,2.329,2.3333,2.3323,2.3296,2.3303,2.3401,2.3411,2.335,2.3524,2.3453,2.3467,2.3514,2.3536,2.3553,2.3548,2.3272,0,0,0,0,0,2.3144,2.3203,2.3215,2.3313,2.3328,2.3323,2.3354,2.3337,2.3365,2.3376,2.3386,2.3414,2.3467,2.3502,2.355,2.3668,2.3672,2.3723,2.374,2.3754,2.3767,2.3828,2.385,2.3611,2.3611,2.361,0,0,2.3211,2.3228,2.3267,2.3331,2.3351,2.3412,2.3333,2.3401,2.3446,2.3386,2.3474,2.3483,2.3512,2.3617,2.3664,2.3629,2.3833,2.3767,2.3779,2.3783,2.3841,2.3863,2.3883,2.3618,2.3616,2.3615,0,0,2.3365,2.3385,2.3468,2.3489,2.3521,2.3516,2.3536,2.3558,2.3561,2.3649,2.3605,2.3657,2.3748,2.377,2.3794,2.3955,2.3918,2.3971,2.4061,2.4121,2.414,2.4157,2.4213,2.4233,2.3984,2.3984,2.3984,0,2.3445,2.3536,2.3514,2.3585,2.3614,2.3563,2.3646,2.3668,2.3713,2.3734,2.3694,2.3806,2.3822,2.3931,2.397,2.3991,2.4012,2.3968,2.4139,2.4156,2.4171,2.4224,2.4245,2.399,2.3989,2.3989,2.3988,0,2.3632,2.3695,2.3758,2.3804,2.3839,2.3916,2.3905,2.3943,2.3923,2.3922,2.4011,2.4028,2.4079,2.4104,2.4084,2.421,2.4186,2.4144,2.4072,2.42,2.425,2.427,2.3999,2.3997,2.3995,2.3993,0,0,2.3843,2.3875,2.3898,2.3917,2.3948,2.3996,2.4069,2.4119,2.4152,2.4185,2.4245,2.4323,2.4283,2.4309,2.4292,2.4344,2.4469,2.4295,2.4295,2.4325,2.4606,2.4638,2.4662,2.4445,2.4449,2.4452,2.4603,0,2.3996,2.4124,2.4106,2.4229,2.4287,2.4239,2.4303,2.4327,2.4328,2.4376,2.4376,2.4432,2.4375,2.4391,2.4441,2.4443,2.4525,2.4432,2.4499,2.4502,2.4493,2.4688,2.4722,2.4864,2.4623,2.4626,2.4628,0,2.4192,2.4232,2.4361,2.4381,2.4404,2.4462,2.4505,2.4552,2.4579,2.4576,2.4605,2.4577,2.4649,2.4577,2.4675,2.4612,2.4639,2.4644,2.4649,2.4654,2.4573,2.4697,2.4909,2.493,2.4659,2.4656,2.4654,0,2.4331,2.4418,2.4505,2.4523,2.4549,2.4591,2.4603,2.4626,2.4656,2.4694,2.4713,2.4759,2.4783,2.4819,2.4803,2.4752,2.4904,2.483,2.4902,2.4903,2.4936,2.4934,2.5154,2.4955,2.4954,2.4954,2.4953,0,2.4504,2.4584,2.4568,2.4622,2.471,2.4688,2.4775,2.4782,2.4802,2.4855,2.4816,2.4867,2.4844,2.4893,2.4882,2.4964,2.4976,2.4974,2.497,2.4977,2.4977,2.4993,2.4983,2.496,2.4958,2.4957,2.4956,0,2.4674,2.4667,2.4759,2.4776,2.4782,2.4846,2.486,2.4909,2.4907,2.4975,2.4989,2.4985,2.5041,2.5029,2.509,2.5082,2.5185,2.5169,2.5176,2.5172,2.5244,2.5237,2.5481,2.5512,2.5294,2.5296,2.5298,0,2.4784,2.4845,2.4868,2.4901,2.4917,2.4971,2.5002,2.4982,2.5016,2.505,2.5095,2.5147,2.5187,2.5278,2.5279,2.5325,2.5309,2.5392,2.5316,2.5321,2.5309,2.5306,2.5311,2.5407,2.5409,2.5411,2.5413,0,2.498,2.4973,2.502,2.5065,2.5103,2.5137,2.5168,2.5197,2.5179,2.5219,2.5275,2.5307,2.5368,2.542,2.5462,2.5473,2.544,2.5437,2.5456,2.5463,2.5465,2.5464,2.5216,2.5431,2.5429,2.5428,2.5427,2.5426,2.5123,2.5174,2.5198,2.5251,2.5271,2.5301,2.5348,2.5351,2.5398,2.5447,2.5432,2.5496,2.5519,2.5572,2.5589,2.5638,2.5606,2.5634,2.5641,2.5648,2.5656,2.5458,2.5645,2.5645,2.5644,2.5644,2.5643,0,2.5315,2.5328,2.5377,2.5421,2.5462,2.5428,2.5459,2.5496,2.5553,2.5577,2.5618,2.5682,2.5731,2.5737,2.5783,2.5821,2.5807,2.5834,2.583,2.5833,2.5682,2.566,2.5844,2.5844,2.5844,2.5844,2.5844,2.5844,2.542,2.5504,2.55,2.5594,2.5606,2.5668,2.5689,2.5715,2.5735,2.5808,2.5849,2.5853,2.5869,2.5916,2.596,2.596,2.5978,2.6011,2.6005,2.5864,2.5844,2.5825,2.5804,2.6016,2.6016,2.6152,2.6154,2.6155]}]]